Regional Weather Roundup
Issued by NWS

Home | Current Version | Previous Version | Graphics & Text | Print | Product List | Glossary On
Versions: 1 2 3 4 5 6 7 8 9 10 11 12 13 14 15 16 17 18 19 20 21 22 23 24 25 26 27
000
ASUS45 KBOU 100907
RWRCO

WEATHER ROUNDUP FOR COLORADO
NATIONAL WEATHER SERVICE DENVER/BOULDER CO
200 AM MST SAT DEC 10 2016

NOTE: "FAIR" INDICATES FEW OR NO CLOUDS BELOW 12000 FEET WITH NO
SIGNIFICANT WEATHER AND/OR OBSTRUCTIONS TO VISIBILITY.

COZ001>005-013-030-031-101000-
...NORTHWEST COLORADO...

CITY           SKY/WX    TMP DP  RH WIND       PRES   REMARKS
CRAIG          FAIR      27  22  81 SE6       30.10S WCI  20
HAYDEN         CLOUDY    25  18  74 E8        30.10S WCI  16
MEEKER         FAIR      37  24  59 SW9       30.12S
MOUNT WERNER   NOT AVBL
STEAMBOAT SPGS CLOUDY    22  21  96 CALM      30.11R VSB 3/4
WALDEN           N/A     34  18  51 S14G23    30.08S WCI  24
$$

COZ006>008-011-101000-
...WEST CENTRAL VALLEYS...

CITY           SKY/WX    TMP DP  RH WIND       PRES   REMARKS
GRAND JUNCTION FAIR      24  20  84 E5        30.20S WCI  18
MONTROSE       FAIR      26  22  84 SE7       30.21F WCI  18
EAGLE          FAIR      20  18  92 CALM      30.18F
RIFLE          FAIR      22  19  89 CALM      30.21R
DELTA          FAIR      28  20  72 N6        30.21F WCI  22
NUCLA          FAIR      30  23  74 SE6       30.24F WCI  24
$$

COZ017>023-064>068-101000-
...SOUTHWEST COLORADO...

CITY           SKY/WX    TMP DP  RH WIND       PRES   REMARKS
DURANGO        FAIR      21  16  81 N5        30.27S WCI  15
CORTEZ         FAIR      21  19  92 CALM      30.24F
PAGOSA SPRINGS FAIR      18  15  87 CALM      30.28R
TELLURIDE      FAIR      31  18  58 SE5       30.27F WCI  27
WOLF CREEK PAS FAIR      19  16  86 S9        30.35F WCI   9
$$

COZ009-010-012-014-032>034-037-058>063-101000-
...CENTRAL COLORADO...

CITY           SKY/WX    TMP DP  RH WIND       PRES   REMARKS
ASPEN          MOCLDY    26  21  81 S7        30.15F WCI  18
BUENA VISTA    FAIR      39  16  38 E9        30.11F
COPPER MTN     FAIR      28  16  59 W25G35    30.19S HAZE    WCI  14
BERTHOUD PASS  FAIR      18   5  57 MISG      30.14R HAZE
COTTONWOOD PAS FAIR      36  18  48 NW18G37   30.08F
GUNNISON       FAIR       7   5  91 E3        30.26F
KREMMLING      CLOUDY    37  25  60 E3        30.12F
LEADVILLE      FAIR      27  14  58 NE9       30.15F WCI  18
MONARCH PASS     N/A     21  18  86 W33G40    30.32F WCI   2
SALIDA         FAIR      41  18  38 SW17G25   30.19S
SUNLIGHT       FAIR      23  19  86 SW17G28   30.22S WCI   9
WILKERSON PASS FAIR      27  12  54 W15G29    30.12S WCI  15
$$

COZ069>075-101000-
...SAN LUIS VALLEY/SANGRE DE CRISTO MOUNTAINS...

CITY           SKY/WX    TMP DP  RH WIND       PRES   REMARKS
ALAMOSA        FAIR       8   5  87 CALM      30.23S
LA VETA PASS   FAIR      27  19  74 NE25G45   30.16S WCI  11
SAGUACHE       FAIR      19  14  79 N8        30.24S WCI   9
$$

COZ035-036-038>040-101000-
...NORTHERN COLORADO FRONT RANGE...

CITY           SKY/WX    TMP DP  RH WIND       PRES   REMARKS
DENVER INTL AP FAIR      23  19  85 W9        30.00F WCI  13
DMNS CITY PARK   N/A     26  21  80 E7        30.00F WCI  19
AURORA         PTCLDY    23  22  96 SE6       29.99F WCI  16
FRONT RANGE AP FAIR      23  21  93 S6        30.00F WCI  16
ERIE MUNI ARPT FAIR      15  13  93 NW5       30.03S FOG     WCI   7
BOULDER MUN AP FAIR      23  21  93 CALM      30.01S
CENTENNIAL     FAIR      28  22  78 S6        29.99F WCI  22
BROOMFIELD     FAIR      27  23  86 CALM      30.00S
FORT COLLINS   FAIR      18  14  86 CALM      30.04S
LONGMONT       FAIR      16  13  87 N3        30.04F
$$

COZ041-046-047-076>085-087-088-101000-
...PIKES PEAK/PALMER DIVIDE AND SOUTHERN FOOTHILLS...

CITY           SKY/WX    TMP DP  RH WIND       PRES   REMARKS
COLO. SPRINGS  FAIR      25  17  72 N6        30.06F WCI  18
A. F. ACADEMY  FAIR      20  15  82 CALM      30.04F
SCHRIEVER AFB  NOT AVBL
ELLICOTT       FAIR     N/A N/A N/A NE3       30.04F
FALCON         FAIR      26  17  70 CALM      30.06F
FORT CARSON    FAIR      21  13  70 NW3       30.04F
LIMON          FAIR      14  12  92 N3        30.05F
MONUMENT HILL  FAIR      32  18  55 SW8       30.05F WCI  25
TRINIDAD       FAIR      35  17  47 NW8       30.10R WCI  29
$$

COZ042>045-048>051-090-091-101000-
...NORTHEAST COLORADO...

CITY           SKY/WX    TMP DP  RH WIND       PRES   REMARKS
GREELEY ARPT   FAIR      16  13  88 VRB6      30.04F WCI   7
AKRON          FAIR      25  19  78 SW9       30.03F WCI  15
BURLINGTON     FAIR      25  19  78 S13       30.09F WCI  14
WRAY           FAIR      18  16  93 E7        30.07  WCI   8
STERLING       CLOUDY    19  16  86 NE5       30.08S WCI  13
HOLYOKE        FAIR      21  18  86 E7        30.10F WCI  13
FORT MORGAN    FAIR      18  14  85 MISG      30.06F
$$

COZ086-089-092>099-101000-
...SOUTHEAST COLORADO...

CITY           SKY/WX    TMP DP  RH WIND       PRES   REMARKS
PUEBLO         FAIR      19  12  74 W6        30.08F WCI  11
LA JUNTA       FAIR      20  12  71 W7        30.10F WCI  11
LAMAR          FAIR      19  16  88 SE7       30.10R WCI  10
SPRINGFIELD      N/A     19  17  92 SW5       30.09F WCI  12
$$




USA.gov is the U.S. government's official web portal to all federal, state and local government web resources and services.